Location: Arthez
(43.0833°N, 0.2500°W)
Time: 21:36:55
(UTC+00:00)

Cosmos 2219 Rocket - Pass Details

Date: 23 October 2021
Orbit: 826 x 848 km, 71.0° (Epoch: 06 December)

Event Time Altitude Azimuth Distance (km) Brightness Sun altitude
Rises 20:08:44 0° 212° (SSW) 3,351 5.5 -33.9°
Reaches altitude 10° 20:11:10 10° 215° (SW) 2,423 4.7 -34.3°
Enters shadow 20:11:56 14° 217° (SW) 2,141 4.4 -34.4°
